Theta_e
318 315 316 316 316 317 317 317 317 317 316 317 316 315 313 317 318 318 318 320 320 316 317 320 327 326 323 321 323 322 320 319 317 318 319 317 313 315 314 313 313 313 313 314
315 317 319 318 318 317 317 317 317 316 316 316 315 315 316 317 318 318 318 319 322 324 324 325 326 325 322 322 321 321 320 320 319 319 320 319 318 318 313 316 314 312 313 313
318 318 320 319 318 318 317 317 317 316 316 315 315 314 315 317 317 319 318 319 321 322 323 325 325 325 324 324 323 322 321 320 319 320 320 320 319 319 318 318 316 312 312 312
320 319 318 316 318 316 317 316 317 317 316 316 314 314 316 317 315 317 318 317 318 319 321 323 323 323 323 324 324 323 322 320 320 320 320 320 320 319 319 318 317 315 314 314
320 317 317 317 318 317 317 316 316 317 314 313 314 314 314 314 315 315 318 319 318 317 318 319 320 320 322 323 324 323 322 321 321 321 320 318 318 319 319 318 318 316 316 315
318 318 316 318 318 317 315 315 311 310 311 313 316 315 312 316 317 316 317 319 319 318 318 318 318 318 318 319 320 321 319 321 319 319 318 316 315 316 318 318 317 316 315 315
318 319 318 317 316 314 311 310 310 313 312 312 312 314 312 315 316 316 317 318 318 318 316 316 316 316 316 316 316 317 317 318 318 317 316 316 316 316 318 318 316 314 314 314
319 320 317 315 316 316 314 311 311 317 314 314 312 316 316 315 315 317 317 316 316 316 316 315 314 314 314 314 314 314 315 314 314 315 316 316 316 318 318 319 315 314 313 313
318 319 316 315 316 314 315 314 312 313 312 314 313 315 315 314 313 313 315 316 315 315 315 315 314 312 312 312 312 312 312 312 313 314 314 315 317 319 320 316 315 313 314 314
316 315 315 317 315 314 314 313 313 311 317 319 316 317 317 314 312 311 311 313 312 312 312 312 312 312 312 311 310 309 307 308 309 311 312 315 316 318 316 315 314 315 314 312
313 312 313 314 314 315 313 313 312 311 312 316 317 315 315 314 311 311 312 313 312 312 311 311 310 309 309 309 308 307 307 307 309 310 312 312 313 313 313 313 311 311 310 310
314 312 315 314 313 312 314 316 312 310 314 312 313 315 313 312 312 312 312 312 312 311 311 311 310 309 309 309 309 308 307 307 307 306 309 310 309 309 309 308 307 307 307 307
311 307 306 309 309 312 316 316 314 309 308 313 311 314 312 312 312 312 312 312 311 311 311 310 310 310 309 309 308 306 307 306 306 305 308 308 308 307 307 306 306 305 305 305
312 308 310 310 311 313 316 315 314 312 305 312 313 314 313 312 311 311 311 311 311 311 310 310 310 309 309 308 307 306 306 305 305 306 307 307 306 306 306 304 303 303 304 304
310 313 311 312 313 316 316 316 316 315 314 314 313 314 314 311 310 311 311 311 311 310 310 309 309 309 308 306 305 303 303 304 304 304 304 305 306 305 303 302 303 303 304 304
310 310 314 316 316 317 317 316 315 315 315 314 314 314 311 312 311 310 311 311 310 310 309 309 308 306 305 303 302 302 302 301 301 303 302 302 302 302 302 303 302 302 303 303
310 311 312 316 316 314 313 315 315 315 314 314 311 310 310 310 310 311 311 310 310 309 308 308 305 304 303 302 301 300 300 301 302 303 303 303 302 302 302 301 302 303 303 303
310 312 312 315 312 316 312 313 314 316 313 312 311 309 310 310 311 311 310 309 309 308 306 305 303 302 301 301 301 301 301 301 300 301 301 301 302 302 301 302 303 303 302 301
309 312 313 312 312 313 315 313 311 308 312 310 310 309 311 310 310 309 308 309 308 305 304 302 301 300 301 301 301 301 301 302 301 301 301 301 301 301 302 301 301 301 301 302
308 309 309 309 312 312 310 312 313 310 307 311 310 310 310 310 310 308 308 306 304 302 302 301 301 301 301 302 302 301 303 303 303 303 302 301 301 302 302 302 302 301 301 302
309 307 309 308 308 309 311 312 312 312 309 310 310 311 310 307 309 309 306 304 302 301 301 301 301 301 301 303 303 302 304 304 304 303 303 302 302 301 302 301 302 302 303 306
308 305 305 305 310 310 312 311 308 308 311 310 311 310 309 309 308 306 304 302 301 301 301 301 301 301 302 305 304 304 305 306 304 304 304 304 303 303 303 304 305 306 309 311
307 307 305 306 307 308 312 311 311 311 311 311 310 309 309 307 305 303 302 301 300 301 300 301 301 301 303 305 305 305 308 306 306 305 305 305 306 306 306 308 309 311 311 313
308 309 309 309 309 311 312 312 310 311 311 310 309 308 307 305 303 301 301 300 300 300 301 301 300 301 303 305 307 308 308 307 307 306 306 306 308 308 309 312 314 314 313 313
308 309 309 308 309 311 312 311 310 310 311 310 308 308 307 304 302 301 300 301 300 301 301 300 301 303 304 306 306 308 308 308 307 307 307 307 309 308 311 312 314 313 314 314
310 308 306 307 311 310 311 310 310 310 310 308 308 307 306 304 302 301 300 301 301 301 301 301 303 304 305 306 306 307 307 307 307 307 307 309 309 309 311 312 313 314 314 315
Wind_Speed
8 8 5 10 4 2 3 3 1 2 0 1 4 3 9 14 24 25 28 28 20 16 16 21 25 25 20 17 14 11 8 5 5 2 2 5 5 8 7 10 14 17 19 20
7 4 3 7 2 4 4 3 3 4 4 2 4 5 5 11 14 21 25 30 27 21 14 10 19 15 16 14 10 5 2 2 1 3 9 9 9 10 7 12 18 15 16 18
3 3 5 2 2 4 2 3 3 5 4 3 4 3 3 3 13 20 29 31 32 27 20 13 11 9 10 8 7 6 5 2 2 6 11 15 12 14 15 17 18 16 17 19
1 10 7 8 6 1 2 4 2 2 3 1 4 4 2 1 6 12 22 28 28 29 24 17 12 2 4 6 9 7 6 3 3 7 10 24 23 22 24 21 21 19 18 21
2 6 6 10 3 3 3 3 4 1 4 3 5 3 4 4 5 7 13 17 19 21 22 20 16 13 11 7 6 9 7 7 9 9 18 27 35 37 30 29 23 23 22 25
4 5 5 1 2 3 5 3 6 5 3 3 3 4 4 1 2 3 5 9 11 13 12 9 8 6 7 12 9 9 13 16 21 24 26 30 37 39 36 28 24 22 25 27
5 2 2 6 6 6 9 6 4 5 5 4 4 2 6 5 2 2 4 8 9 8 10 10 12 10 7 9 13 19 24 26 30 29 32 31 31 39 36 29 25 22 25 27
2 6 5 6 2 4 4 5 4 3 2 6 7 5 1 3 9 5 6 6 9 9 10 12 11 13 12 13 16 17 19 21 18 23 32 32 35 33 30 26 23 23 25 27
3 5 3 7 4 3 5 4 2 2 2 2 4 3 4 2 4 10 7 9 13 14 12 15 18 17 16 18 17 19 20 23 24 24 25 27 27 26 27 24 25 25 24 23
5 2 3 4 3 8 6 2 5 4 3 4 5 5 3 6 10 7 10 10 14 14 14 16 19 23 24 26 26 26 27 29 30 31 31 25 23 24 26 27 27 23 23 25
3 3 6 4 4 2 5 4 4 2 4 3 4 5 2 1 3 6 10 17 22 22 25 29 31 29 28 27 26 33 40 36 31 31 28 25 23 21 22 23 24 26 29 32
2 4 2 5 3 6 5 1 3 4 6 4 2 7 3 3 4 9 13 18 21 25 30 32 35 29 25 24 33 43 49 40 36 40 41 38 35 34 35 36 37 38 40 42
5 1 3 7 6 3 4 3 3 3 3 5 3 5 6 2 8 16 21 29 28 31 37 36 34 28 28 28 42 48 44 41 49 38 38 39 40 41 41 39 36 37 40 43
4 3 6 6 7 3 4 4 4 4 3 3 5 8 9 8 8 19 26 28 30 33 33 34 35 30 35 42 41 42 41 47 39 36 37 39 38 37 36 40 41 39 38 37
4 4 4 5 6 3 6 6 4 6 5 4 5 8 10 6 10 22 27 28 32 33 34 36 38 38 40 40 41 43 39 36 36 39 40 36 37 40 41 35 33 31 30 30
2 2 3 3 5 5 6 5 5 3 2 5 7 12 2 20 22 22 27 32 33 36 37 36 37 44 43 41 39 37 40 37 33 35 38 38 33 32 35 31 32 30 28 26
2 4 2 4 3 5 6 4 3 3 3 5 5 5 7 16 21 24 31 34 36 35 39 42 44 41 38 37 39 39 39 35 34 33 31 30 32 35 31 32 29 28 26 26
4 4 2 3 4 1 3 2 1 4 9 8 3 7 15 20 30 30 32 30 34 40 42 40 41 38 41 39 39 40 36 37 34 33 35 34 29 30 29 25 25 26 30 33
5 4 1 1 2 5 1 1 2 2 13 6 4 12 23 28 25 27 27 30 38 40 41 40 38 41 41 41 38 36 33 32 30 30 30 27 26 26 24 26 28 29 27 25
5 5 4 2 1 4 3 4 9 4 5 9 9 17 21 24 14 17 38 47 41 43 36 40 41 40 40 37 35 35 32 31 29 26 24 23 23 23 25 27 26 24 23 22
3 2 2 2 4 6 3 6 6 2 7 15 25 27 28 10 21 39 48 45 45 38 39 40 40 39 39 35 34 33 30 31 28 23 22 20 19 20 20 20 19 15 14 15
4 3 3 1 2 6 3 2 4 8 19 24 24 25 31 33 36 43 43 40 40 38 41 39 40 40 35 33 32 31 30 26 23 20 18 16 15 13 13 12 12 11 10 11
1 6 4 7 6 5 7 10 18 17 19 21 21 27 29 31 40 42 40 36 36 39 41 40 40 39 33 31 28 31 27 20 19 17 15 13 10 8 9 10 8 7 7 6
3 5 3 2 4 12 14 17 20 18 21 19 24 27 28 33 41 38 37 38 37 40 41 40 38 34 34 30 28 24 25 14 15 14 11 7 6 9 8 2 4 5 3 4
5 5 3 4 10 15 16 16 18 23 17 22 24 27 29 35 41 33 37 37 40 40 41 36 35 33 32 29 24 20 15 10 10 9 7 3 6 7 7 3 4 2 5 4
9 6 4 6 16 10 15 16 20 17 17 22 26 30 32 37 38 37 38 37 39 40 37 33 33 31 27 28 24 19 13 10 7 6 3 2 8 7 7 7 6 5 7 9
Wind_Direction
17 64 10 305 249 186 107 91 102 253 304 147 43 295 15 33 32 22 19 15 344 300 283 231 197 188 178 171 179 196 206 171 157 117 12 13 20 357 350 354 337 322 319 317
20 84 346 324 59 121 72 93 343 297 323 96 8 57 97 25 33 37 31 35 45 57 81 148 178 167 167 179 181 176 136 139 98 352 343 349 349 338 346 343 346 330 318 315
125 275 340 62 349 26 95 116 230 225 328 3 44 30 36 21 32 39 50 58 53 56 70 88 139 183 208 204 195 205 189 199 335 322 328 357 317 328 310 322 332 335 340 337
29 340 5 48 59 21 38 328 270 248 73 293 42 265 298 332 4 40 43 54 63 63 54 55 49 3 304 264 237 216 228 241 273 307 327 346 325 316 315 315 322 322 327 339
350 28 36 49 334 9 258 0 334 16 97 89 348 76 249 2 10 6 39 50 55 58 63 65 52 26 12 346 299 291 280 271 274 300 336 334 321 314 309 307 311 314 320 329
154 115 54 280 356 25 304 341 39 48 72 46 274 102 290 306 358 348 67 63 60 56 50 45 39 39 4 331 307 291 301 288 297 296 303 301 308 303 293 294 297 303 313 319
347 18 355 19 21 350 37 46 354 6 10 224 263 335 248 356 47 20 88 54 51 49 45 32 16 4 343 332 313 301 295 280 279 288 292 288 292 283 280 281 287 296 303 308
73 327 26 337 66 254 14 98 134 295 230 252 316 251 92 78 41 12 38 44 28 14 15 20 12 5 4 355 349 321 311 321 311 294 281 277 272 271 278 266 278 285 290 298
100 289 346 39 353 64 324 26 222 147 342 39 272 102 275 4 13 15 343 25 16 12 6 3 348 346 348 346 343 341 332 324 318 302 291 289 282 271 267 267 270 273 276 283
201 296 18 314 74 24 90 270 22 11 353 307 292 290 257 345 355 344 11 25 7 359 351 343 331 324 319 319 321 321 329 327 317 307 303 292 280 267 259 260 264 263 270 280
93 111 297 15 50 327 4 20 38 113 151 224 297 257 203 275 358 347 352 342 335 333 333 324 321 315 309 307 311 319 320 317 307 300 287 274 269 265 264 266 272 279 282 285
65 129 240 259 251 255 136 230 116 114 279 238 221 276 154 144 6 342 327 328 320 317 319 316 318 312 310 303 308 311 308 303 291 292 285 281 280 279 280 281 284 286 287 289
178 16 9 353 354 339 59 274 203 144 73 222 165 263 180 307 327 333 327 326 322 319 317 314 317 309 301 295 305 307 302 294 297 290 281 284 286 287 287 287 288 288 289 290
108 134 159 193 221 164 278 256 277 164 136 237 240 287 299 317 316 323 322 318 317 315 313 309 313 303 299 305 303 302 296 295 293 288 283 285 286 283 284 288 286 287 286 284
98 199 202 245 253 245 250 270 220 222 213 191 264 263 284 303 308 310 313 314 311 310 309 310 308 307 307 307 305 302 303 297 293 288 288 283 280 282 286 286 283 284 279 278
21 251 171 277 265 278 282 230 232 234 212 268 266 285 31 320 314 307 313 310 307 303 309 307 307 309 308 307 308 305 301 303 298 291 288 287 287 289 290 284 287 281 279 278
142 129 88 262 337 327 301 211 204 278 268 248 275 271 309 314 312 310 310 307 303 310 312 310 310 310 308 307 310 308 311 310 304 298 290 285 287 289 285 285 281 278 279 280
140 117 138 264 357 242 245 61 319 258 270 280 292 292 296 295 306 310 316 313 313 314 313 311 313 311 312 315 312 312 311 301 302 287 291 294 291 284 287 283 278 273 278 282
155 120 324 165 208 285 214 291 291 145 293 204 244 305 314 313 309 309 320 320 314 314 312 313 312 313 316 315 317 315 312 311 308 302 297 294 290 286 284 282 280 278 278 278
79 74 116 91 262 268 221 282 307 127 292 210 267 305 303 315 317 313 323 322 319 315 314 313 315 315 314 321 320 315 311 311 307 310 304 294 288 286 282 287 282 282 275 272
6 14 188 188 245 283 235 273 296 38 275 312 315 315 313 287 292 305 318 318 320 319 318 319 321 317 321 324 323 317 314 310 313 309 306 302 292 286 287 283 277 273 274 273
174 153 218 60 268 294 208 266 130 252 304 311 315 317 316 311 313 319 316 314 319 319 321 327 324 324 325 326 325 320 317 321 314 308 308 310 304 300 293 286 286 284 279 282
265 180 194 174 220 239 255 274 311 290 300 310 310 319 315 315 321 320 317 316 316 323 326 331 327 326 327 332 330 322 319 318 311 305 310 311 309 310 317 310 304 277 298 296
273 181 196 73 258 249 270 297 305 305 300 308 316 315 315 324 330 325 323 320 322 329 330 332 329 330 332 334 333 327 321 311 310 305 312 306 297 323 336 14 328 289 300 295
227 159 202 260 281 284 278 298 314 320 301 310 322 322 322 334 334 327 325 324 329 329 333 336 337 335 338 343 337 335 326 320 317 312 321 306 321 12 41 96 107 60 87 82
188 193 160 235 282 245 276 315 320 308 305 323 328 327 332 336 334 334 329 328 330 331 340 342 341 344 342 346 344 339 330 321 308 322 327 0 18 51 28 28 62 57 105 103